Wind_Speed
12 12 12 12 12 12 12 11 10 9 8 7 6 5 4 3 3 5 5 5 4 4 4 4 4 5 3 2 3 3 2 3 3 4 4 4 3 3 4 4 4 4 5 6 7 7 7 7 7 6 7 8 9 9 11 12 14 16 17 20 22 22 22 21 21 22 25 25 25 25 26 27 27 26 27 28 27 27 27 26 25 24 22 21 20 21 21 20
12 12 12 12 12 11 11 10 9 8 8 6 5 4 3 3 3 3 3 3 3 4 4 4 4 4 4 4 4 3 3 2 3 4 4 3 3 4 5 5 5 5 6 7 8 8 9 9 9 9 9 10 11 11 12 13 15 16 18 21 22 21 21 20 21 22 24 25 25 24 25 26 26 25 27 28 26 27 27 23 22 21 20 19 19 21 22 22
11 11 11 11 11 10 9 9 8 8 7 5 4 3 3 3 3 2 2 2 3 4 3 4 5 6 5 4 4 4 3 2 3 3 3 3 3 4 5 6 7 7 7 8 8 9 9 11 11 11 11 12 13 14 15 15 16 17 18 20 20 20 20 20 21 22 23 24 24 24 25 25 24 25 26 27 26 25 24 19 18 20 20 19 18 21 23 23
9 9 9 9 9 8 8 7 7 6 5 4 4 4 3 3 2 2 2 3 3 3 4 5 5 6 5 4 4 3 3 2 2 2 2 3 3 4 6 6 7 8 8 8 9 9 10 11 11 12 12 13 15 16 16 16 17 18 18 19 20 20 20 19 20 21 21 23 23 24 25 24 23 24 25 26 26 22 18 17 18 19 20 19 19 21 23 23
7 7 7 7 7 7 7 7 6 5 5 4 4 3 3 3 2 2 3 3 3 4 5 5 5 4 4 4 4 4 3 2 1 3 2 3 4 5 6 6 7 8 8 8 8 9 10 11 11 12 12 13 14 15 16 16 17 18 18 18 19 20 20 18 19 20 20 22 23 23 24 23 22 22 23 24 22 19 16 16 17 17 18 19 20 21 22 23
7 7 7 7 8 8 7 7 6 5 5 4 3 3 2 2 2 3 4 4 4 4 4 4 3 3 3 4 5 4 3 2 2 3 3 3 4 5 6 6 7 8 8 8 8 8 9 10 11 12 12 13 13 13 14 15 16 18 17 16 17 19 19 18 19 19 19 20 21 22 21 21 21 21 23 20 17 17 17 16 17 18 18 18 19 20 20 21
7 7 7 8 8 8 7 6 6 5 4 4 3 2 2 2 3 4 5 4 4 3 3 3 3 4 4 5 5 3 2 1 2 3 3 3 4 4 5 6 7 8 9 9 9 9 10 10 11 12 12 13 13 13 13 14 15 17 17 16 16 17 18 18 18 17 18 19 19 20 20 20 21 22 21 15 15 19 19 17 19 20 20 21 21 21 21 20
7 7 7 8 8 8 7 6 6 5 4 3 3 3 3 3 4 5 5 4 3 3 3 4 5 5 5 5 4 2 2 2 2 3 3 4 4 4 4 5 6 7 8 10 10 10 10 11 12 12 13 13 13 12 13 13 14 16 16 17 16 17 17 16 15 16 17 18 18 19 20 19 21 22 18 14 16 19 21 21 22 23 22 22 23 23 23 23
9 8 8 9 8 8 7 6 5 5 4 3 3 3 3 4 4 4 3 2 3 4 5 6 5 5 5 4 3 3 3 3 3 3 3 4 3 3 4 5 6 7 8 10 10 11 11 12 12 12 13 12 11 12 13 14 14 15 16 16 15 14 14 14 14 16 17 18 18 19 19 19 19 19 17 16 19 21 22 22 22 22 22 22 23 25 27 27
11 10 9 9 8 7 6 5 4 4 3 3 3 3 3 3 3 2 2 3 4 5 5 5 4 4 4 3 3 3 3 4 4 4 4 4 4 4 5 6 8 8 10 11 11 12 11 11 11 11 11 10 10 12 12 13 15 15 15 14 13 13 13 14 15 16 17 17 17 19 19 16 15 17 17 17 20 22 20 15 15 19 20 20 20 22 24 27
11 10 9 8 7 6 5 4 3 3 2 2 2 2 2 2 2 2 3 4 5 4 4 3 3 3 3 4 5 5 4 4 4 4 4 4 5 6 7 8 9 9 10 11 10 11 10 10 9 9 9 9 11 11 11 13 14 14 13 10 10 13 13 14 14 15 16 16 17 20 16 12 12 13 15 16 16 17 15 11 13 16 18 19 19 20 21 22
11 10 9 8 7 6 5 4 3 3 2 1 1 0 1 2 3 4 4 4 4 3 2 3 3 4 5 6 7 6 5 5 5 5 6 6 7 7 8 8 9 9 9 9 8 9 8 7 6 8 9 10 11 11 11 13 11 12 14 10 8 9 11 13 14 14 16 16 18 19 13 10 13 11 12 14 13 12 13 14 14 15 17 19 19 20 21 22
10 9 9 8 7 6 5 4 4 3 2 2 2 3 4 5 5 5 5 4 4 4 5 5 6 8 8 8 7 7 7 7 7 7 7 8 7 8 8 8 8 7 7 6 7 8 8 6 6 9 11 10 10 10 11 10 9 13 13 11 11 9 10 14 14 14 16 17 19 19 15 13 12 11 14 16 15 15 15 18 18 18 18 19 20 22 22 22
11 10 9 8 7 6 5 5 5 4 5 5 5 5 6 6 6 6 5 6 6 7 8 8 8 9 10 10 9 9 10 10 9 9 9 8 7 7 7 6 6 6 6 6 7 9 10 8 8 9 10 10 9 9 11 9 10 14 10 10 16 16 15 15 14 15 15 17 18 17 16 13 9 9 14 17 19 21 20 22 23 22 20 19 20 21 21 21
12 10 9 8 7 7 7 7 7 7 8 7 7 7 7 7 7 8 9 9 9 9 9 10 10 10 11 12 11 12 12 11 11 10 9 8 7 7 8 8 6 6 6 6 8 9 10 10 9 9 10 10 8 10 11 8 10 15 13 14 18 20 18 14 14 16 16 15 16 17 17 12 6 6 10 14 18 21 23 26 27 26 23 21 20 20 20 20
11 10 10 9 9 9 10 10 9 9 8 8 8 8 8 9 9 10 11 11 11 11 11 11 12 12 12 13 13 12 11 10 10 10 10 10 10 10 11 11 9 8 7 7 7 8 9 10 10 9 10 10 9 11 10 8 12 17 18 19 19 20 19 15 15 16 16 15 13 16 17 12 6 6 8 11 15 19 23 26 26 26 24 23 24 24 24 23
11 11 11 11 12 12 11 11 10 9 9 10 10 10 10 11 11 11 11 12 13 14 14 14 13 13 13 12 11 11 11 11 11 11 12 12 13 13 12 11 10 9 8 8 7 7 9 11 11 10 10 11 11 13 12 11 18 19 18 19 18 19 19 15 15 16 17 15 12 13 14 11 7 10 13 14 16 18 21 22 22 23 24 25 26 27 27 27
12 12 12 13 13 12 12 11 11 11 11 11 10 10 11 11 12 12 12 13 14 15 15 14 11 13 14 12 11 13 14 14 13 13 13 13 13 11 10 9 10 10 9 8 7 7 10 11 12 9 9 11 13 16 15 13 17 18 17 18 18 18 18 16 15 18 18 14 12 14 13 9 8 12 16 17 18 18 19 18 18 20 22 24 26 26 26 26
13 13 13 13 13 12 12 12 12 11 11 11 10 11 13 14 15 16 16 15 15 16 17 15 13 15 16 14 15 16 15 15 14 13 12 12 11 10 9 7 8 10 9 6 6 8 9 9 10 9 10 15 16 17 15 13 13 14 16 17 18 19 19 16 16 19 21 17 13 16 16 11 10 14 16 16 17 17 17 16 17 19 22 23 24 25 25 25
15 15 14 13 12 12 12 12 13 13 14 14 15 17 18 19 19 20 19 17 18 20 18 16 15 17 17 16 16 15 14 14 14 13 10 9 9 10 10 7 8 11 7 3 6 8 8 8 9 11 13 17 18 16 14 14 13 13 15 16 17 20 21 18 17 20 22 22 18 18 20 11 9 16 16 16 18 16 16 17 18 20 22 23 23 25 27 27
16 15 14 14 14 14 15 16 17 18 19 19 19 20 21 21 21 21 19 19 22 22 19 16 15 14 15 16 15 14 14 12 12 12 10 8 9 11 10 7 8 10 7 5 7 7 7 8 11 13 14 17 17 15 15 14 13 13 16 18 18 20 23 19 18 20 21 24 22 21 23 12 7 17 15 15 18 16 17 20 21 21 21 24 26 27 30 31
16 16 16 17 17 18 19 20 20 21 21 20 20 20 21 21 21 21 21 23 23 22 20 18 16 13 12 11 12 14 12 7 7 9 9 9 8 9 9 6 8 9 6 6 8 6 7 11 14 13 15 17 16 16 16 15 14 14 17 20 20 22 26 22 20 22 19 23 24 22 27 17 7 15 13 13 18 14 18 25 21 21 22 25 29 30 32 33
17 18 20 20 20 20 20 20 20 20 20 20 20 20 22 22 22 21 22 24 22 21 20 17 15 14 11 9 8 11 12 9 8 10 10 10 10 11 10 8 10 10 7 8 9 9 11 14 15 15 17 18 17 16 15 14 14 16 19 22 23 24 26 26 27 26 21 21 22 24 32 22 7 15 15 13 16 12 18 27 22 20 22 25 31 32 30 30
21 22 23 22 21 20 20 20 20 20 20 21 21 22 22 22 22 22 23 23 21 20 18 16 15 15 13 11 7 6 13 15 12 13 14 13 13 13 12 12 13 11 9 10 10 12 14 14 15 16 18 18 17 16 15 15 14 15 19 21 25 26 26 29 29 30 28 20 17 25 31 19 6 18 22 15 14 12 20 29 22 16 15 15 21 22 19 19
25 24 23 21 20 19 18 18 18 19 19 19 19 20 20 20 20 21 21 21 20 19 18 16 15 16 16 15 11 6 11 17 16 17 17 16 15 15 15 14 14 13 11 11 10 12 13 13 15 16 19 20 17 17 18 19 18 18 20 22 25 26 29 32 27 31 31 18 19 24 17 11 14 24 28 18 16 17 23 28 18 7 7 8 10 14 14 14
24 22 19 18 17 16 16 15 15 15 14 15 15 16 17 16 15 13 12 14 19 20 20 18 16 17 17 17 16 10 11 17 21 20 18 17 16 16 16 16 16 14 12 10 10 11 13 14 16 17 21 21 18 20 21 22 22 21 22 24 25 26 32 31 26 30 25 16 24 20 4 11 25 33 30 19 19 21 22 22 13 5 6 7 10 15 16 16
19 17 15 14 13 13 13 13 12 12 12 12 11 10 8 5 3 4 5 6 14 21 20 18 16 17 18 19 19 16 14 17 20 20 19 18 17 15 16 17 18 16 14 12 11 12 14 16 18 19 21 22 23 23 23 23 22 22 24 26 27 31 33 28 26 28 23 21 24 14 5 10 21 33 31 18 18 21 21 20 13 8 7 9 15 17 16 14
15 13 12 11 10 10 11 10 9 8 7 5 3 2 2 3 3 3 3 3 10 17 17 17 16 17 19 19 19 19 18 18 19 21 21 18 17 15 15 17 18 18 17 14 12 12 14 17 20 21 23 25 27 24 23 24 22 24 27 26 30 35 32 28 28 25 21 21 17 8 7 7 19 34 30 17 19 21 24 26 19 15 14 17 21 20 16 13
12 11 9 8 7 7 6 5 3 3 2 1 1 2 2 2 3 4 6 6 9 14 15 15 15 15 17 17 18 19 19 20 21 21 20 18 17 15 16 17 18 20 20 17 16 14 14 18 23 25 26 28 28 24 24 24 22 26 28 26 31 33 30 27 23 20 19 16 8 5 6 6 16 28 24 18 23 22 24 27 22 21 21 22 25 24 21 18
11 9 7 6 5 4 2 1 1 2 1 1 2 3 3 3 3 4 6 5 8 13 14 14 15 15 15 16 17 18 18 19 20 19 17 18 17 16 16 17 16 17 19 19 19 17 15 18 23 25 26 30 29 25 24 22 22 27 27 28 32 32 30 21 14 19 16 7 5 7 9 9 8 14 18 17 17 17 24 27 26 25 24 25 28 27 26 25
9 8 7 6 6 4 3 3 3 3 3 3 3 3 4 4 4 4 4 4 7 11 13 14 16 16 16 16 18 19 19 18 18 17 17 18 18 18 19 21 21 19 20 21 21 21 17 17 22 23 24 31 33 28 23 20 23 26 25 29 33 31 28 16 13 17 7 4 12 14 16 14 4 4 13 12 11 15 21 24 27 27 26 29 29 29 28 27
10 10 9 9 8 7 6 6 6 6 7 7 7 7 8 9 10 9 5 2 5 9 13 16 17 17 17 18 19 19 19 20 20 21 22 24 25 26 27 29 30 26 25 26 24 23 19 17 22 22 23 32 35 32 26 23 26 24 23 30 25 17 17 10 8 9 4 11 20 18 19 15 5 5 8 10 14 18 18 20 23 24 28 31 31 32 33 31
13 13 12 12 11 10 10 9 8 9 8 8 9 8 11 12 9 10 8 5 6 9 13 15 17 18 18 19 20 19 19 21 22 22 23 24 26 28 28 29 30 27 25 24 23 27 24 20 25 24 23 31 35 34 30 30 30 21 23 30 17 4 7 6 5 5 6 19 28 23 18 12 7 9 10 12 15 18 19 21 24 27 29 31 33 35 35 36
16 15 15 14 13 13 13 11 12 12 10 11 11 11 16 17 12 12 12 9 9 12 13 14 16 18 19 20 21 20 21 21 22 23 21 22 25 27 26 27 29 28 28 24 20 23 22 20 25 26 25 30 32 29 27 29 27 19 23 27 14 5 5 5 5 4 8 22 32 27 14 9 10 12 13 11 13 17 21 23 27 30 33 35 37 38 39 41
17 17 17 16 15 15 14 15 15 14 14 13 11 14 18 16 13 15 14 10 10 11 11 13 14 16 18 20 21 21 21 21 22 23 22 22 26 29 27 28 30 30 31 26 19 16 15 19 24 23 26 31 30 27 27 27 22 19 24 23 16 15 12 11 14 16 15 15 21 22 18 20 22 19 17 14 17 24 24 26 31 33 36 40 42 43 45 47
16 17 17 17 18 17 16 16 13 12 15 9 7 18 23 17 15 16 14 12 11 9 9 11 13 14 16 19 21 21 21 22 22 23 24 23 24 29 29 28 30 31 30 28 23 16 15 22 26 24 29 33 29 27 27 24 21 21 23 23 23 23 19 15 16 18 14 7 12 18 22 28 25 21 24 25 29 34 31 32 36 38 42 44 46 50 51 53
19 19 19 20 20 18 17 15 11 11 13 6 8 22 25 20 20 18 16 15 14 13 11 12 14 15 17 18 21 21 21 22 23 23 26 23 21 27 29 28 29 30 29 29 25 21 21 25 28 28 32 33 30 30 28 23 22 22 22 26 27 22 19 15 9 7 6 4 11 18 24 31 23 20 30 34 33 35 37 40 43 46 50 52 56 60 60 63
21 21 21 20 20 20 18 16 13 10 6 6 16 25 23 20 20 17 16 15 15 15 16 15 15 16 17 17 19 22 22 23 24 23 25 23 21 24 28 29 29 29 30 29 26 27 27 25 26 30 33 33 30 30 29 26 23 21 22 28 26 17 17 17 10 6 7 5 8 14 23 29 23 20 29 34 33 37 44 48 52 55 59 63 67 67 67 69
20 19 20 20 18 17 18 18 14 11 10 14 23 24 20 21 19 16 16 15 15 16 17 17 17 16 17 17 18 20 22 23 24 23 23 24 22 22 26 29 29 30 31 29 27 30 27 19 22 31 34 32 31 31 31 29 25 23 26 28 23 16 16 20 19 14 9 8 8 9 13 17 19 21 24 27 32 40 47 53 57 61 65 70 72 69 67 67
15 16 20 20 18 16 18 17 12 11 14 21 24 22 20 20 18 16 16 15 16 17 17 17 17 17 18 19 18 19 20 21 23 23 22 25 24 23 26 29 30 31 30 29 29 30 27 19 22 34 37 32 31 29 28 27 24 26 29 25 19 18 18 20 25 23 14 8 5 4 8 16 23 23 21 26 36 45 51 56 60 64 68 71 71 68 66 64
12 16 20 19 18 18 17 13 9 12 19 22 23 22 20 18 17 17 16 16 17 16 16 16 16 17 18 18 20 20 18 19 22 23 22 25 25 25 28 29 30 32 30 29 29 29 28 23 25 35 39 35 33 30 26 24 22 25 27 21 16 19 19 14 16 23 23 16 12 11 11 18 23 22 23 33 45 51 52 56 64 68 69 68 66 66 65 63
13 17 19 16 17 18 13 10 13 17 21 22 21 20 19 17 17 16 16 16 16 16 17 16 16 17 18 18 19 20 20 19 21 23 23 24 24 26 28 28 30 31 29 28 28 29 29 24 26 35 37 35 32 30 27 24 24 27 25 21 21 20 19 13 10 20 29 27 25 20 12 13 19 22 30 43 50 50 49 57 68 70 67 67 67 67 65 64
14 18 18 15 17 15 8 11 17 18 20 21 20 19 18 17 17 16 16 15 15 15 15 16 16 17 18 18 19 20 21 20 19 23 23 22 24 26 25 27 29 28 27 27 28 29 26 21 27 36 38 41 40 36 34 30 30 32 27 26 25 19 19 16 12 17 22 20 19 14 8 16 26 31 40 48 49 46 50 62 70 69 69 71 70 69 66 64
14 18 18 15 17 14 11 15 17 18 20 21 20 19 18 17 16 16 15 14 14 14 14 15 16 17 18 19 19 20 22 21 20 22 22 22 24 24 24 27 27 25 26 28 29 29 24 20 24 24 25 34 39 38 41 41 38 35 30 29 27 24 25 23 19 18 12 13 21 14 9 24 38 41 47 49 45 48 59 68 70 70 74 76 73 71 67 62
12 16 19 18 15 13 15 18 17 17 21 20 19 19 17 16 16 14 14 14 13 13 13 15 15 16 17 18 19 20 22 22 21 21 22 24 24 24 24 25 24 24 25 26 29 30 27 26 23 13 8 13 17 22 33 40 38 34 32 31 29 27 27 25 24 20 13 21 31 21 20 37 48 45 46 46 45 56 68 71 71 73 76 76 73 69 62 57
11 15 19 19 16 15 18 20 17 17 19 18 17 17 15 14 14 12 12 13 12 12 13 14 16 16 17 18 18 18 21 21 20 22 24 24 23 23 24 22 22 23 24 26 29 29 31 31 26 17 15 18 23 27 31 31 29 30 31 30 28 24 24 25 23 20 22 29 31 28 34 47 48 42 42 42 49 63 71 71 72 75 76 73 68 62 58 56
11 14 15 16 16 17 19 19 17 16 16 15 15 15 14 13 12 11 11 11 12 13 13 14 17 17 17 19 19 19 21 20 20 23 24 22 21 21 21 20 21 22 24 27 28 29 33 34 31 29 29 31 34 32 27 24 25 28 28 27 25 23 24 28 25 25 31 25 24 36 46 45 43 41 39 43 55 66 69 70 74 76 73 68 63 60 59 57
12 14 15 15 16 17 18 18 17 16 14 14 14 13 12 11 11 11 11 11 11 13 14 15 18 18 18 20 21 23 24 24 24 25 23 22 22 21 20 19 21 24 25 25 28 31 33 34 37 39 38 38 35 27 23 25 27 28 27 24 22 24 29 33 29 32 38 28 28 44 48 40 41 40 38 47 61 66 67 69 73 73 69 64 61 60 59 58
15 15 16 16 17 17 16 16 16 14 12 12 12 12 11 10 10 10 12 12 13 14 15 16 18 18 19 20 23 25 26 28 28 27 24 23 23 23 21 20 23 25 24 24 28 32 34 37 39 40 44 43 33 24 27 30 29 28 26 21 19 24 31 35 35 40 44 39 42 48 45 39 38 36 41 55 64 65 65 69 72 71 66 63 61 59 58 59
15 15 15 15 16 16 15 14 14 12 10 11 11 10 9 10 10 11 12 13 14 15 16 17 18 18 19 21 24 24 24 25 25 25 24 23 23 22 20 20 24 24 22 24 28 30 34 38 38 40 46 44 36 31 31 32 32 29 23 20 22 29 36 40 42 44 45 45 48 48 43 41 38 39 50 62 65 64 65 68 72 69 66 64 61 58 59 62
14 14 14 12 12 14 13 12 12 10 9 10 9 9 8 9 11 12 13 15 15 15 17 17 18 18 19 21 23 22 23 22 20 19 19 19 21 18 16 20 24 23 24 27 28 30 34 36 39 41 41 42 42 38 33 35 33 25 19 22 27 33 42 47 47 48 49 49 50 47 42 40 41 48 60 66 65 64 65 69 70 67 65 63 59 58 62 65
14 14 13 10 10 11 11 10 9 8 8 8 8 9 9 10 12 13 14 15 15 16 17 18 18 18 20 22 22 21 21 20 19 17 14 17 18 12 10 18 22 22 26 28 28 32 34 34 37 36 33 40 42 38 39 38 23 15 20 25 27 36 47 51 54 57 56 51 49 47 42 38 45 58 68 69 67 66 67 69 69 65 63 62 60 62 65 66
Wind_Direction
176 175 175 175 178 183 190 195 194 195 201 205 208 212 217 224 243 259 271 272 257 248 252 258 261 265 272 263 258 256 249 240 242 262 278 293 320 334 330 318 296 276 262 257 258 258 261 267 272 277 281 282 282 279 276 277 277 276 274 272 276 284 291 299 301 301 302 305 307 307 306 304 306 308 305 301 302 304 301 303 308 304 296 293 290 286 284 280
175 177 178 178 179 182 186 189 191 193 199 203 204 204 213 227 234 241 247 244 238 244 260 285 296 306 313 299 284 275 263 245 234 249 270 294 316 324 321 315 307 292 275 267 267 270 272 277 281 283 285 288 288 287 283 281 280 277 276 278 284 293 299 303 305 305 305 306 307 306 305 305 308 308 303 301 304 304 304 313 313 300 291 291 288 283 280 278
174 174 177 179 179 181 183 187 191 194 197 199 196 194 201 213 222 221 215 229 251 258 285 312 318 319 306 288 282 278 277 259 238 244 264 290 305 316 318 318 317 309 295 285 282 283 283 286 289 290 291 290 289 290 289 288 287 284 283 286 294 301 303 307 309 307 306 306 307 308 306 306 309 306 303 303 304 305 310 314 303 290 287 288 284 280 281 280
172 172 176 178 175 176 180 186 193 195 193 191 190 185 183 192 209 216 229 252 262 276 299 309 313 311 300 300 304 299 299 278 268 280 276 292 303 311 314 316 318 314 308 301 295 292 290 290 291 290 289 289 290 292 293 295 294 291 291 295 303 306 306 312 311 308 309 308 309 310 306 306 308 305 303 304 306 311 314 302 291 293 296 295 288 283 287 290
166 167 169 170 168 171 178 185 190 190 187 187 187 175 170 181 200 229 261 271 279 289 298 310 313 309 310 324 325 319 313 279 298 325 317 318 318 316 317 319 319 317 315 308 299 296 291 289 289 288 289 290 293 297 299 300 297 296 299 304 309 307 310 315 312 311 312 310 310 309 306 308 309 304 304 307 311 318 318 308 304 309 312 308 299 293 296 300
157 157 157 161 165 170 176 180 182 183 183 183 181 169 172 194 220 253 268 273 279 287 302 321 318 318 326 326 324 320 318 298 296 343 349 338 330 323 320 316 314 314 312 306 300 297 291 290 292 292 294 296 298 301 301 300 299 299 303 308 309 309 314 316 315 317 315 313 314 310 308 311 309 306 308 314 321 321 317 317 316 314 311 305 301 301 303 303
150 149 151 156 161 167 173 176 178 179 178 178 176 174 195 220 243 257 266 270 275 297 326 340 338 341 336 327 329 329 330 307 279 333 345 335 329 320 314 310 311 314 308 303 300 296 295 297 298 298 299 301 303 303 301 301 301 303 308 312 314 317 318 319 320 320 316 317 315 309 308 311 311 310 315 327 332 320 309 309 311 306 300 296 295 297 298 297
157 153 152 155 160 167 172 174 176 174 174 176 180 195 217 234 247 257 266 277 298 346 3 358 353 349 341 334 346 3 8 9 323 318 324 319 313 306 307 305 306 311 308 305 303 303 306 305 304 304 304 306 307 305 304 305 306 309 313 319 324 324 323 325 324 317 314 317 312 307 309 314 315 313 319 334 327 310 303 306 306 299 293 290 288 288 288 286
165 160 158 160 163 168 171 171 171 170 172 178 191 211 227 238 251 266 285 318 359 19 13 358 352 351 350 349 10 25 18 11 343 322 321 311 306 308 309 311 313 316 317 316 316 317 316 311 309 309 310 312 313 313 313 315 317 319 322 329 331 327 326 324 316 312 316 319 315 313 318 323 320 315 317 320 310 301 303 310 309 303 300 295 290 285 283 280
162 162 162 164 165 167 169 167 166 166 171 184 205 222 239 257 277 306 342 13 23 22 7 358 359 358 4 11 18 27 19 1 344 337 337 322 319 324 330 339 331 328 330 327 328 326 319 313 313 318 321 322 325 324 325 330 331 330 335 338 333 327 323 316 313 317 323 324 321 324 332 335 329 324 318 309 303 306 315 322 319 320 321 317 312 306 298 291
156 159 161 162 163 164 165 163 161 165 170 190 215 240 279 316 348 21 38 35 25 16 6 13 17 12 33 35 34 41 24 5 360 352 348 344 345 346 352 351 339 336 335 328 329 329 323 320 323 334 338 339 339 338 342 343 339 336 337 336 332 329 320 315 320 323 327 327 324 331 341 348 348 341 327 320 321 326 337 339 328 328 331 332 333 331 326 317
151 154 157 158 160 160 158 157 157 160 167 183 207 348 34 49 56 52 44 29 17 19 34 47 45 46 48 40 42 45 31 22 17 6 3 2 358 357 358 349 340 341 334 328 338 342 342 343 350 358 356 355 354 353 348 342 340 337 331 329 336 338 330 326 327 330 334 333 333 343 355 4 7 360 343 345 346 344 346 343 338 332 329 332 332 333 333 328
148 150 152 153 153 150 148 149 149 148 146 135 108 97 91 79 67 51 39 35 42 57 62 60 57 57 54 49 48 44 39 32 22 18 15 11 7 2 0 351 346 351 348 353 7 8 7 10 13 5 357 354 353 350 342 333 335 337 332 336 345 354 349 336 334 343 346 340 343 353 357 1 8 354 343 350 351 348 347 346 347 343 335 332 328 329 332 331
145 146 146 144 141 140 138 137 134 126 118 111 105 101 94 84 76 68 65 68 68 68 68 68 68 65 58 53 49 45 42 34 27 24 19 18 15 12 10 2 1 11 18 26 27 19 11 4 1 357 347 342 344 342 336 326 330 341 343 347 347 350 355 349 345 355 357 349 351 355 350 351 357 333 329 340 348 351 350 348 348 347 343 336 331 331 334 339
140 139 138 135 132 131 127 124 121 119 116 111 105 98 88 86 88 88 84 77 73 72 72 72 72 69 63 56 50 46 42 37 34 29 26 29 25 24 24 23 26 21 21 25 20 14 5 355 347 340 337 339 343 339 334 322 329 348 356 353 350 350 357 360 353 358 3 359 356 350 346 350 345 309 312 323 334 338 339 340 339 339 341 340 341 341 339 343
134 132 130 128 127 124 121 119 117 115 112 105 101 96 93 94 96 91 84 80 80 78 78 77 74 71 65 59 52 48 46 42 40 37 36 35 29 26 21 22 21 7 5 1 357 358 351 348 345 341 345 349 347 341 338 335 345 358 359 354 354 353 358 5 359 358 2 3 1 349 345 351 341 304 301 306 315 320 324 329 332 335 338 338 340 340 339 340
128 126 124 125 124 120 118 116 113 112 108 103 101 101 103 102 98 92 89 91 88 82 79 75 75 74 68 62 57 53 48 41 36 34 30 25 23 18 11 11 5 357 352 338 330 336 340 348 356 359 0 359 355 355 360 359 354 358 359 355 356 356 355 358 358 358 357 358 359 353 348 347 341 325 319 318 319 320 322 327 334 339 338 336 336 338 338 339
122 121 120 121 118 115 115 113 114 114 110 107 104 104 105 104 100 96 96 95 91 86 79 71 73 73 65 58 54 48 42 35 28 26 25 22 17 9 2 1 356 347 330 317 313 323 337 353 1 2 4 6 4 4 10 6 353 353 356 354 354 359 356 349 350 353 352 353 349 349 353 343 328 330 326 327 331 328 328 329 330 334 336 334 334 337 340 342
116 114 114 114 111 111 112 113 114 109 104 104 105 110 110 108 103 95 93 94 92 85 76 67 66 64 57 47 42 38 35 32 24 18 15 13 11 6 357 344 348 347 327 305 302 320 340 350 350 355 7 11 8 8 11 4 355 353 352 352 348 351 356 350 343 345 344 347 346 340 349 347 325 332 332 331 336 333 330 328 327 333 336 338 341 346 348 350
112 110 110 110 110 111 110 111 108 103 106 107 110 112 109 107 100 94 93 91 84 75 69 63 57 55 51 43 39 33 29 30 23 13 4 3 8 3 353 341 349 357 352 326 315 334 351 343 350 11 16 11 8 10 7 359 359 356 351 353 349 344 351 351 341 341 337 339 343 332 339 348 329 337 337 332 337 335 330 332 338 343 345 350 354 356 356 357
113 112 113 113 112 114 113 113 112 113 114 110 109 107 104 102 97 92 89 81 72 65 60 54 48 47 46 42 40 32 24 21 14 5 0 360 359 356 360 2 352 355 5 2 350 354 358 356 11 23 14 7 8 8 2 358 355 355 352 351 351 343 343 345 340 338 330 330 336 327 329 337 331 340 339 331 337 336 337 342 348 354 359 2 2 1 1 360
117 118 118 117 117 117 117 117 117 116 113 108 108 106 104 101 94 89 83 74 66 60 54 46 40 38 36 37 39 35 22 1 354 2 6 9 10 15 26 21 358 3 17 17 14 5 4 19 25 19 6 6 9 3 359 355 347 349 353 349 350 345 339 340 339 336 326 323 329 326 327 330 350 354 346 339 341 343 353 356 358 3 7 7 5 4 2 358
123 123 121 119 118 116 115 116 116 114 112 112 112 109 104 97 91 85 77 71 64 60 55 46 41 35 29 27 30 33 23 16 18 21 30 38 42 45 41 24 13 26 41 39 33 19 20 27 22 12 6 4 3 360 356 353 348 347 351 347 345 345 341 336 333 334 327 319 326 330 327 325 4 10 360 357 352 353 4 5 7 5 2 7 7 4 357 351
125 122 119 116 114 113 115 116 117 117 117 117 113 107 100 93 88 81 74 69 62 57 51 44 42 37 35 33 27 26 23 26 32 36 44 48 48 46 37 31 31 40 47 41 37 26 25 26 17 11 6 1 359 355 351 354 357 350 349 348 342 341 341 333 328 331 328 320 328 333 329 322 346 4 3 12 9 4 6 7 12 2 347 355 360 355 341 331
121 117 114 112 113 115 118 120 122 122 120 117 112 107 100 93 88 80 73 65 54 50 46 40 40 39 39 39 37 40 26 28 34 37 43 44 45 42 36 37 40 45 45 37 33 24 23 21 15 12 6 2 357 351 354 357 356 353 351 349 342 340 339 333 326 329 327 321 332 336 335 320 320 348 1 14 25 18 7 6 13 355 305 294 313 323 317 307
116 114 112 112 116 118 121 125 127 126 123 119 114 111 107 99 92 76 59 50 40 37 37 35 36 37 37 36 38 41 31 30 34 37 40 42 43 40 38 39 38 43 41 31 28 22 21 19 14 14 9 4 357 355 360 357 351 351 349 345 344 340 337 332 324 326 322 315 330 332 317 305 318 342 358 13 25 17 3 2 10 346 284 272 295 316 319 309
115 114 114 116 120 122 126 132 133 132 129 124 118 119 117 100 65 9 1 29 25 22 25 27 33 36 34 35 36 41 40 34 35 40 42 42 40 37 36 35 35 38 34 25 26 23 20 18 14 15 12 7 2 359 359 354 347 345 343 342 344 339 335 332 324 324 316 312 326 322 301 307 312 337 357 11 9 358 348 349 356 352 330 324 330 329 329 321
113 114 115 117 123 125 129 136 140 140 138 138 137 171 237 285 288 344 35 67 15 10 15 20 29 32 30 34 37 43 47 41 39 41 41 41 37 34 33 29 31 33 29 23 18 16 15 15 14 12 12 11 7 0 354 350 344 341 340 339 341 337 334 332 327 324 317 318 326 310 327 323 304 332 357 1 343 341 338 338 341 345 337 331 335 332 331 334
110 111 110 112 118 121 131 143 159 165 169 193 144 143 149 111 110 87 82 77 18 13 19 22 30 32 30 38 42 45 49 46 45 42 40 39 33 33 32 26 27 28 26 22 12 7 6 11 12 8 9 10 7 2 352 346 342 340 338 335 337 336 334 334 331 328 319 316 316 295 342 344 315 341 1 343 334 337 332 329 328 335 334 329 332 330 324 323
104 103 100 99 99 101 124 148 162 154 146 146 132 142 146 130 119 89 76 60 24 23 29 32 40 43 41 45 47 48 50 48 49 45 40 38 30 30 31 25 26 27 25 21 15 10 6 10 10 6 6 5 4 2 353 346 341 338 336 333 335 338 340 340 337 334 323 306 314 308 328 333 325 4 10 353 350 340 326 320 311 313 322 325 328 329 329 325
92 89 86 85 86 93 108 118 133 131 119 131 135 130 118 104 94 88 83 59 31 27 35 43 47 50 49 48 48 46 44 44 43 38 33 29 21 18 22 22 20 20 17 18 20 16 13 11 7 4 4 1 0 359 357 355 346 338 336 337 338 342 345 342 339 342 327 279 320 311 316 323 291 348 358 1 0 340 331 324 312 309 316 321 325 328 333 333
86 86 86 87 91 100 109 115 123 114 107 110 111 108 96 83 72 73 91 90 32 29 44 51 51 51 48 46 44 39 36 35 30 27 24 22 19 19 23 22 18 16 11 11 16 16 17 17 9 5 2 1 358 355 357 359 351 342 340 344 346 347 347 343 336 340 266 289 316 313 312 314 241 236 320 339 345 347 345 334 327 324 322 323 326 328 330 332
90 90 89 89 90 93 96 101 108 110 108 97 95 97 90 86 73 65 82 93 63 48 50 53 50 48 45 40 38 33 31 31 26 25 24 23 24 26 28 25 21 19 11 6 10 11 13 15 11 6 2 1 359 354 352 352 350 348 347 349 354 7 350 331 306 315 292 304 312 312 306 296 244 239 278 310 331 342 344 342 343 338 331 329 327 326 325 324
90 89 86 84 84 84 87 92 97 101 97 87 90 94 88 85 78 74 82 86 78 64 54 52 48 44 40 35 33 28 27 29 26 24 24 23 26 27 26 23 20 18 12 7 10 12 8 3 4 5 2 360 359 357 352 347 348 348 346 347 347 358 344 287 282 290 293 304 307 308 300 288 287 271 269 295 318 325 329 333 338 337 337 336 332 329 327 325
91 88 85 83 79 79 82 87 90 89 87 84 83 84 83 83 81 77 75 75 74 64 54 51 46 43 40 34 30 28 27 28 25 23 23 23 26 25 21 19 16 13 11 8 4 8 1 353 1 6 360 357 359 360 354 349 350 349 346 345 337 331 312 275 279 280 280 295 302 299 291 294 296 280 267 274 291 300 305 310 319 326 330 331 330 330 330 329
89 85 82 79 76 76 76 78 80 77 76 71 69 79 81 86 87 79 73 73 69 60 54 47 41 42 41 35 32 30 27 26 24 23 23 23 26 23 17 15 13 9 7 4 359 357 344 347 1 5 359 358 359 358 358 354 350 346 346 345 336 330 318 292 284 285 286 279 282 286 289 295 293 279 276 278 284 293 301 310 320 328 330 330 330 330 330 330
83 79 77 75 73 70 68 67 66 68 69 61 77 85 87 87 86 83 80 75 66 62 59 49 42 39 36 34 33 30 27 26 24 23 24 23 21 20 16 12 10 6 3 0 357 351 337 339 354 2 356 356 356 354 357 358 351 347 347 345 338 333 324 307 287 296 305 268 276 285 289 292 288 281 290 296 302 312 322 328 331 333 334 334 334 333 332 332
78 77 75 73 72 70 67 61 56 67 89 105 90 88 90 88 85 84 79 71 66 62 57 54 48 40 36 33 30 28 27 26 25 22 22 20 15 14 13 8 5 4 0 358 355 349 341 335 344 355 353 351 354 352 353 357 353 345 342 339 336 328 319 311 298 305 308 283 279 283 287 290 286 287 299 308 322 332 335 335 334 334 335 336 337 337 336 335
78 80 75 68 65 68 69 64 65 89 108 98 91 90 90 88 86 81 74 69 65 60 56 55 49 42 40 33 27 26 25 24 22 19 17 14 9 7 7 5 2 360 356 355 353 349 345 332 330 345 348 347 351 351 350 352 349 342 336 336 334 323 312 305 298 293 281 276 288 286 285 286 284 293 306 318 330 335 336 335 335 336 336 337 338 339 338 336
83 82 77 71 64 60 67 73 77 91 89 83 88 92 90 88 85 78 73 67 64 62 60 56 48 44 40 32 28 23 21 22 18 15 13 8 5 2 1 359 357 356 353 351 351 347 345 331 320 336 345 346 348 351 349 348 346 341 335 334 333 323 315 307 301 298 288 277 293 294 284 288 290 291 300 319 330 332 334 336 336 336 336 336 337 337 336 335
75 74 75 75 71 64 70 85 81 70 78 83 88 91 89 87 83 78 74 67 64 62 58 53 46 41 35 29 26 19 16 17 12 10 8 4 3 359 355 353 352 352 350 348 350 348 343 332 321 333 341 341 343 346 348 350 346 339 333 329 327 322 324 324 305 303 302 294 293 296 291 293 291 288 302 323 328 326 329 335 337 337 337 336 335 334 333 332
68 70 72 71 75 73 69 80 77 73 82 88 88 90 89 86 83 78 73 67 64 59 53 47 39 34 29 22 18 14 11 10 7 6 2 360 360 354 350 351 349 349 349 348 349 348 344 336 329 333 335 336 341 345 348 348 342 335 328 319 313 313 322 324 294 299 302 295 295 298 295 298 299 304 315 322 321 317 323 333 336 336 335 335 334 333 331 330
70 72 74 69 73 78 71 76 82 85 89 89 88 90 87 83 81 75 69 65 59 53 47 40 32 27 22 14 9 6 5 4 3 1 359 358 355 351 348 348 347 348 349 349 349 348 347 343 336 335 336 338 342 345 344 343 339 333 325 319 318 321 330 324 307 310 304 298 311 313 287 299 308 312 314 313 313 316 325 333 335 334 335 334 333 331 330 328
71 75 78 72 71 79 82 83 88 91 91 90 89 87 83 80 77 71 67 61 54 49 40 31 25 18 13 8 3 1 0 1 0 358 359 357 352 349 347 345 348 351 350 349 348 346 347 346 340 338 340 340 341 344 341 338 335 329 320 320 322 325 329 329 336 340 317 310 330 326 275 301 312 313 312 310 313 323 331 333 334 335 335 333 331 329 329 328
71 78 78 75 73 79 85 85 85 87 89 90 87 84 81 77 72 68 62 54 46 40 30 23 16 9 5 2 359 359 358 358 358 356 356 354 349 348 347 347 351 353 352 349 346 345 345 344 345 347 342 331 328 329 328 325 322 317 312 312 313 317 326 336 350 355 336 322 323 308 286 307 317 317 311 310 318 328 332 333 334 335 333 330 329 329 329 329
69 81 84 84 79 77 82 85 82 81 85 86 83 80 75 70 66 61 54 46 36 27 21 16 8 1 359 357 357 358 357 356 357 354 352 352 351 349 348 351 356 356 352 348 345 345 343 342 347 347 334 323 315 317 322 319 309 307 307 307 310 318 329 343 354 355 340 324 312 307 310 313 318 316 306 311 324 330 331 333 333 333 330 329 329 330 330 331
73 84 89 91 87 81 81 83 79 75 77 78 77 75 70 61 54 46 40 34 24 16 11 8 4 1 358 357 357 358 357 356 355 352 351 352 354 352 350 355 1 359 352 348 346 345 343 343 344 339 331 328 325 327 331 320 307 307 306 304 310 320 332 344 351 352 347 327 302 321 328 318 314 312 306 316 327 329 331 333 332 331 330 330 332 332 333 333
76 84 86 87 90 88 83 82 78 71 68 68 69 68 63 53 44 36 29 19 10 7 5 4 4 3 1 360 359 357 355 354 355 355 354 354 356 356 355 360 4 0 353 348 346 345 344 342 339 334 330 330 333 338 338 326 316 312 305 303 316 332 343 348 349 348 347 331 312 327 330 319 314 311 308 319 326 328 332 332 330 330 330 331 333 333 334 333
72 77 82 84 86 85 81 80 77 68 60 59 61 60 50 39 32 24 19 14 7 5 4 4 5 4 2 1 359 358 356 353 353 354 355 356 357 355 357 3 4 358 353 348 345 345 343 339 337 335 331 334 342 347 338 330 322 312 303 302 316 326 333 341 345 347 345 335 327 330 327 319 315 310 312 321 325 328 331 330 329 330 331 332 333 333 333 331
73 73 75 76 79 80 76 73 71 64 52 47 50 50 38 26 20 14 13 11 7 6 5 4 6 4 1 0 359 359 358 354 352 351 351 353 355 355 357 360 357 354 352 348 344 344 341 338 339 338 333 336 346 344 337 334 325 311 297 292 305 317 326 337 345 347 343 335 331 329 322 315 313 313 318 322 323 327 329 328 329 331 332 333 333 333 331 329
71 69 66 60 66 73 70 65 64 56 43 40 40 36 25 15 12 9 9 8 6 6 5 4 3 1 359 359 359 358 357 356 353 351 351 352 354 359 359 353 351 351 349 346 342 342 342 339 343 343 334 334 342 341 337 335 323 305 296 305 321 335 339 341 344 345 342 335 330 326 318 314 315 318 320 320 323 328 329 328 329 331 332 333 332 331 329 327
63 62 60 46 50 65 64 55 51 41 34 33 27 22 20 13 9 7 7 7 4 4 4 2 360 358 357 358 358 358 358 357 356 354 356 358 359 5 360 350 351 349 346 345 341 342 345 344 347 347 332 329 339 338 333 334 325 307 316 320 329 342 342 339 340 343 343 338 330 322 315 312 315 318 320 323 326 328 328 327 329 331 332 332 331 329 327 327
Height
3122 3123 3124 3125 3126 3127 3129 3129 3129 3130 3130 3131 3131 3131 3131 3131 3131 3131 3131 3132 3132 3132 3131 3131 3131 3130 3129 3129 3128 3127 3127 3127 3127 3127 3127 3126 3126 3126 3125 3125 3125 3125 3124 3124 3124 3123 3123 3123 3123 3123 3123 3123 3123 3123 3122 3122 3121 3121 3120 3119 3117 3117 3116 3115 3114 3112 3110 3109 3108 3107 3105 3103 3102 3101 3099 3098 3096 3095 3093 3091 3090 3088 3086 3085 3084 3082 3081 3081
3123 3124 3125 3126 3127 3128 3128 3129 3129 3130 3130 3130 3131 3131 3131 3131 3131 3131 3131 3132 3132 3131 3131 3130 3130 3129 3128 3128 3128 3127 3127 3127 3127 3127 3126 3126 3126 3125 3125 3125 3125 3124 3124 3124 3124 3123 3123 3123 3123 3123 3123 3122 3122 3122 3121 3121 3121 3120 3119 3117 3116 3116 3115 3114 3112 3111 3109 3107 3106 3105 3103 3102 3101 3099 3097 3095 3094 3092 3089 3089 3087 3084 3084 3082 3081 3079 3078 3077
3123 3124 3125 3126 3127 3127 3128 3128 3129 3129 3130 3130 3130 3131 3131 3131 3131 3131 3131 3132 3131 3131 3130 3129 3129 3128 3128 3128 3128 3127 3127 3127 3127 3127 3126 3126 3126 3125 3125 3125 3125 3124 3124 3124 3123 3123 3123 3122 3122 3122 3122 3122 3121 3121 3120 3120 3119 3119 3117 3116 3115 3114 3113 3112 3111 3109 3107 3105 3104 3103 3101 3100 3099 3097 3094 3092 3090 3089 3087 3086 3083 3081 3080 3080 3078 3076 3075 3074
3123 3124 3125 3126 3127 3127 3128 3128 3129 3129 3130 3130 3130 3130 3131 3131 3131 3131 3131 3131 3131 3130 3130 3129 3129 3128 3128 3128 3127 3127 3127 3127 3126 3126 3126 3126 3126 3126 3125 3125 3125 3124 3124 3124 3123 3123 3122 3122 3122 3122 3122 3121 3120 3120 3119 3119 3118 3117 3116 3115 3114 3112 3111 3111 3109 3107 3106 3104 3102 3101 3099 3098 3097 3094 3092 3089 3087 3087 3085 3083 3081 3079 3078 3077 3076 3074 3072 3071
3123 3124 3125 3126 3127 3127 3128 3128 3129 3129 3130 3130 3130 3130 3131 3131 3131 3131 3131 3130 3130 3130 3129 3129 3129 3129 3128 3128 3127 3127 3127 3126 3126 3126 3126 3126 3126 3126 3126 3125 3125 3125 3124 3124 3123 3123 3122 3122 3122 3121 3121 3121 3120 3119 3118 3117 3116 3115 3114 3114 3112 3110 3109 3109 3107 3105 3104 3102 3100 3099 3097 3096 3094 3092 3090 3088 3085 3084 3083 3081 3079 3078 3077 3075 3074 3072 3071 3070
3124 3125 3125 3126 3127 3127 3128 3128 3129 3129 3130 3130 3130 3130 3130 3131 3131 3131 3130 3130 3130 3130 3130 3129 3129 3128 3128 3127 3127 3127 3127 3126 3126 3126 3126 3126 3126 3126 3126 3125 3125 3124 3124 3123 3123 3122 3122 3121 3121 3120 3120 3119 3118 3118 3117 3116 3114 3113 3112 3112 3111 3109 3108 3107 3105 3104 3102 3100 3099 3097 3095 3094 3092 3089 3088 3086 3084 3082 3081 3079 3077 3076 3075 3073 3071 3070 3069 3068
3124 3125 3126 3126 3127 3127 3128 3128 3129 3129 3129 3130 3130 3130 3130 3130 3131 3131 3130 3130 3130 3130 3130 3130 3129 3128 3128 3127 3127 3127 3127 3126 3127 3127 3126 3126 3126 3126 3125 3125 3124 3124 3123 3123 3122 3122 3121 3120 3120 3119 3118 3118 3117 3116 3115 3114 3113 3111 3111 3110 3109 3108 3106 3105 3104 3102 3100 3099 3098 3095 3093 3092 3089 3087 3085 3084 3083 3080 3077 3076 3075 3073 3072 3070 3068 3067 3066 3066
3124 3125 3126 3126 3127 3127 3128 3128 3129 3129 3130 3130 3130 3130 3130 3131 3131 3131 3131 3131 3130 3130 3130 3129 3129 3128 3128 3128 3127 3127 3127 3127 3127 3127 3126 3126 3126 3125 3125 3124 3124 3123 3123 3122 3121 3121 3120 3119 3118 3117 3117 3116 3116 3115 3114 3113 3112 3110 3109 3109 3108 3106 3105 3104 3102 3101 3099 3098 3096 3094 3092 3090 3087 3085 3083 3082 3080 3077 3075 3074 3072 3070 3068 3067 3065 3064 3063 3062
3125 3125 3126 3126 3127 3127 3128 3128 3129 3129 3130 3130 3130 3130 3131 3131 3131 3131 3131 3131 3131 3130 3130 3129 3129 3128 3128 3128 3127 3127 3127 3127 3127 3126 3126 3126 3125 3125 3124 3124 3123 3122 3121 3121 3120 3119 3119 3118 3117 3116 3116 3115 3114 3114 3113 3111 3110 3109 3108 3107 3106 3105 3104 3103 3101 3100 3099 3097 3095 3092 3090 3088 3086 3082 3081 3080 3076 3074 3073 3072 3070 3067 3065 3064 3062 3061 3059 3057
3125 3126 3126 3127 3127 3128 3128 3129 3129 3130 3130 3130 3130 3131 3131 3131 3131 3131 3131 3131 3131 3130 3130 3130 3129 3129 3128 3128 3127 3127 3127 3127 3126 3126 3125 3125 3125 3124 3123 3123 3122 3121 3120 3120 3119 3119 3118 3117 3116 3116 3115 3114 3113 3112 3111 3110 3109 3108 3107 3106 3105 3104 3103 3101 3100 3099 3098 3095 3093 3090 3088 3086 3084 3080 3078 3077 3074 3072 3072 3071 3068 3065 3063 3062 3060 3058 3057 3054
3125 3126 3127 3127 3128 3128 3129 3129 3130 3130 3130 3130 3131 3131 3131 3131 3131 3131 3131 3131 3131 3131 3130 3130 3129 3129 3128 3128 3127 3127 3127 3127 3126 3126 3125 3125 3124 3123 3122 3122 3121 3121 3120 3120 3119 3118 3118 3117 3116 3115 3114 3113 3112 3111 3110 3109 3108 3107 3106 3106 3105 3103 3102 3101 3099 3098 3096 3093 3091 3089 3086 3084 3082 3079 3076 3075 3074 3071 3070 3069 3067 3065 3063 3061 3059 3057 3055 3053
3125 3126 3127 3128 3128 3129 3129 3130 3130 3130 3131 3131 3131 3131 3132 3132 3132 3132 3132 3132 3131 3131 3130 3130 3130 3129 3129 3128 3128 3127 3127 3126 3126 3125 3125 3124 3123 3123 3122 3122 3121 3121 3120 3120 3119 3118 3117 3117 3116 3115 3114 3113 3112 3111 3110 3109 3108 3107 3106 3105 3105 3104 3101 3099 3098 3096 3094 3091 3089 3087 3084 3082 3080 3078 3076 3074 3073 3071 3069 3068 3066 3064 3062 3060 3059 3057 3055 3052
3126 3127 3127 3128 3129 3129 3130 3130 3131 3131 3132 3132 3132 3132 3132 3132 3133 3133 3132 3132 3131 3131 3131 3130 3130 3130 3129 3128 3128 3128 3127 3126 3126 3125 3125 3124 3124 3123 3123 3122 3122 3121 3121 3120 3119 3118 3117 3116 3115 3114 3113 3113 3112 3111 3110 3109 3108 3108 3106 3104 3103 3102 3100 3098 3096 3094 3092 3089 3087 3085 3082 3081 3079 3077 3074 3072 3071 3069 3068 3066 3065 3064 3062 3060 3058 3056 3054 3052
3126 3127 3128 3129 3130 3130 3131 3131 3132 3132 3132 3133 3133 3133 3133 3133 3133 3133 3133 3132 3132 3132 3131 3131 3131 3130 3129 3129 3128 3128 3127 3127 3126 3126 3125 3125 3124 3124 3124 3123 3122 3122 3121 3120 3119 3118 3117 3116 3115 3114 3113 3113 3112 3111 3110 3109 3108 3107 3105 3103 3101 3099 3098 3096 3094 3092 3090 3088 3085 3084 3081 3079 3079 3077 3073 3071 3069 3067 3066 3065 3063 3062 3061 3060 3058 3056 3055 3052
3127 3128 3129 3130 3130 3131 3131 3132 3132 3133 3133 3133 3133 3133 3134 3134 3134 3134 3133 3133 3133 3132 3132 3132 3131 3130 3130 3129 3129 3129 3128 3128 3128 3127 3127 3126 3125 3125 3124 3123 3123 3122 3121 3120 3119 3118 3117 3116 3115 3115 3114 3113 3112 3112 3110 3109 3108 3106 3104 3102 3100 3097 3096 3094 3092 3091 3089 3087 3084 3082 3080 3078 3077 3076 3074 3071 3068 3067 3065 3064 3062 3061 3060 3058 3057 3056 3054 3053
3128 3129 3130 3130 3131 3131 3132 3133 3133 3133 3133 3134 3134 3134 3134 3135 3135 3135 3134 3134 3134 3133 3133 3132 3132 3131 3131 3131 3131 3130 3130 3130 3129 3129 3128 3127 3126 3125 3124 3124 3123 3123 3122 3120 3119 3118 3118 3117 3116 3115 3115 3113 3112 3111 3109 3108 3107 3104 3102 3100 3098 3096 3095 3093 3091 3089 3088 3086 3084 3081 3078 3077 3076 3074 3073 3072 3070 3068 3066 3064 3062 3060 3058 3057 3056 3054 3053 3051
3129 3130 3130 3131 3132 3132 3133 3133 3134 3134 3135 3135 3135 3135 3135 3136 3135 3135 3135 3135 3135 3134 3134 3133 3133 3132 3132 3132 3133 3132 3132 3131 3130 3130 3129 3128 3127 3126 3125 3124 3123 3123 3122 3121 3119 3119 3118 3118 3116 3115 3114 3113 3112 3110 3108 3106 3104 3103 3101 3100 3098 3096 3094 3092 3090 3089 3087 3085 3083 3081 3078 3076 3075 3073 3072 3071 3069 3068 3066 3063 3061 3059 3057 3056 3054 3052 3051 3049
3130 3131 3131 3132 3133 3133 3134 3135 3135 3135 3136 3136 3136 3136 3136 3137 3137 3136 3136 3136 3136 3135 3135 3135 3135 3134 3134 3134 3134 3133 3132 3132 3131 3130 3129 3128 3127 3127 3126 3125 3124 3123 3122 3121 3120 3119 3119 3118 3116 3115 3114 3112 3111 3109 3107 3106 3104 3102 3101 3099 3097 3095 3093 3091 3089 3088 3086 3084 3082 3080 3078 3076 3075 3073 3071 3069 3068 3066 3064 3062 3060 3058 3056 3054 3053 3051 3049 3047
3132 3132 3133 3134 3134 3135 3135 3136 3136 3136 3137 3137 3137 3137 3138 3138 3138 3138 3138 3138 3137 3136 3136 3137 3137 3135 3135 3135 3134 3133 3133 3132 3131 3130 3130 3129 3128 3128 3127 3126 3125 3123 3122 3120 3120 3120 3119 3118 3117 3115 3113 3112 3110 3108 3106 3106 3104 3102 3100 3098 3096 3094 3093 3091 3088 3086 3084 3083 3081 3079 3077 3076 3073 3072 3070 3068 3066 3065 3063 3061 3060 3058 3056 3054 3052 3050 3048 3047
3133 3134 3134 3135 3136 3136 3137 3137 3137 3138 3138 3139 3139 3139 3139 3139 3139 3139 3139 3139 3138 3137 3137 3138 3138 3137 3136 3136 3135 3135 3134 3133 3132 3132 3131 3130 3129 3128 3127 3125 3125 3123 3122 3121 3120 3119 3118 3118 3117 3115 3113 3111 3109 3108 3106 3105 3103 3102 3100 3098 3096 3094 3092 3090 3088 3085 3082 3080 3079 3077 3076 3075 3072 3070 3069 3067 3065 3064 3062 3060 3059 3057 3055 3053 3052 3050 3049 3047
3134 3135 3136 3136 3137 3137 3138 3138 3139 3139 3140 3140 3141 3141 3140 3141 3140 3140 3141 3140 3139 3139 3139 3139 3139 3138 3138 3137 3137 3136 3136 3135 3134 3133 3132 3130 3129 3128 3126 3125 3125 3124 3122 3121 3120 3119 3118 3118 3116 3114 3113 3111 3109 3108 3106 3104 3103 3102 3100 3098 3097 3094 3091 3090 3088 3085 3082 3079 3077 3076 3074 3074 3072 3070 3068 3066 3064 3063 3061 3060 3059 3057 3056 3054 3052 3050 3049 3047
3135 3136 3137 3138 3138 3139 3139 3140 3140 3141 3141 3142 3142 3143 3142 3142 3142 3142 3142 3141 3140 3141 3140 3140 3140 3140 3139 3139 3139 3138 3137 3137 3136 3135 3133 3131 3129 3128 3126 3126 3125 3123 3122 3121 3120 3119 3118 3117 3115 3114 3113 3111 3110 3108 3106 3105 3103 3102 3100 3098 3096 3094 3090 3088 3087 3085 3083 3079 3077 3074 3071 3072 3072 3070 3068 3066 3064 3064 3062 3060 3059 3058 3056 3055 3053 3051 3049 3047
3137 3138 3139 3139 3140 3141 3141 3142 3142 3143 3143 3144 3144 3145 3144 3144 3143 3143 3142 3141 3142 3142 3142 3142 3142 3141 3141 3140 3140 3139 3139 3138 3136 3135 3133 3131 3129 3128 3127 3126 3124 3123 3122 3121 3120 3119 3118 3116 3115 3114 3113 3112 3110 3109 3107 3106 3104 3102 3101 3098 3096 3094 3091 3087 3084 3084 3083 3080 3077 3074 3070 3069 3071 3070 3069 3067 3065 3064 3064 3062 3061 3060 3058 3056 3054 3052 3050 3047
3139 3140 3140 3141 3142 3143 3143 3144 3144 3145 3145 3146 3146 3146 3145 3145 3145 3144 3143 3143 3144 3144 3144 3145 3144 3143 3142 3141 3140 3140 3139 3138 3136 3134 3132 3131 3130 3128 3127 3126 3124 3123 3122 3121 3120 3120 3118 3117 3116 3115 3114 3112 3111 3110 3108 3107 3105 3103 3101 3098 3096 3093 3092 3088 3083 3081 3080 3079 3077 3074 3069 3066 3068 3069 3068 3067 3066 3065 3065 3063 3060 3057 3055 3053 3050 3046 3043 3040
3141 3142 3143 3144 3144 3145 3145 3146 3146 3147 3147 3147 3147 3147 3146 3146 3146 3146 3145 3146 3147 3147 3146 3146 3145 3144 3143 3142 3140 3140 3139 3139 3137 3134 3133 3131 3130 3129 3128 3126 3125 3124 3123 3122 3121 3120 3119 3118 3117 3116 3114 3113 3111 3110 3108 3106 3105 3103 3101 3099 3096 3093 3090 3087 3084 3080 3077 3076 3075 3074 3070 3065 3065 3067 3067 3066 3066 3066 3064 3059 3053 3051 3049 3046 3042 3038 3036 3034
3143 3144 3145 3146 3147 3147 3147 3148 3148 3149 3149 3149 3149 3148 3148 3148 3147 3147 3147 3147 3148 3148 3147 3146 3146 3145 3144 3142 3141 3140 3139 3139 3136 3135 3133 3132 3131 3130 3129 3127 3126 3125 3124 3123 3122 3121 3120 3119 3118 3117 3115 3113 3112 3110 3108 3105 3103 3102 3100 3098 3096 3093 3090 3087 3084 3080 3077 3075 3074 3074 3073 3067 3063 3065 3067 3066 3066 3064 3060 3054 3050 3047 3044 3041 3038 3036 3034 3032
3145 3146 3147 3148 3148 3149 3149 3150 3150 3150 3150 3150 3150 3150 3149 3149 3148 3148 3148 3148 3149 3149 3148 3147 3146 3145 3144 3142 3141 3140 3140 3139 3138 3136 3135 3133 3132 3131 3130 3129 3127 3126 3125 3124 3123 3122 3121 3120 3118 3117 3116 3114 3111 3109 3107 3105 3103 3102 3100 3098 3095 3092 3089 3086 3083 3081 3077 3075 3074 3072 3073 3069 3063 3065 3067 3065 3063 3059 3053 3050 3047 3044 3041 3039 3038 3037 3035 3032
3147 3148 3148 3149 3150 3150 3150 3150 3150 3151 3151 3151 3151 3150 3150 3149 3149 3149 3148 3150 3153 3152 3150 3149 3147 3146 3145 3143 3143 3142 3141 3140 3139 3137 3135 3134 3133 3133 3131 3130 3128 3127 3126 3125 3124 3123 3121 3120 3119 3117 3116 3114 3111 3109 3107 3106 3104 3101 3099 3097 3094 3091 3088 3085 3082 3080 3077 3075 3073 3072 3072 3070 3064 3064 3066 3062 3057 3053 3049 3046 3045 3043 3041 3039 3038 3036 3034 3031
3149 3149 3150 3150 3150 3150 3150 3150 3151 3151 3151 3151 3151 3151 3150 3150 3150 3149 3148 3152 3156 3154 3152 3151 3149 3147 3146 3145 3145 3144 3142 3141 3140 3138 3137 3136 3135 3134 3132 3130 3129 3127 3126 3125 3124 3123 3122 3120 3118 3116 3115 3114 3112 3111 3108 3106 3104 3101 3099 3096 3094 3091 3087 3084 3081 3079 3077 3075 3073 3072 3072 3070 3066 3063 3063 3058 3053 3051 3048 3047 3045 3043 3041 3038 3036 3034 3031 3028
3150 3150 3150 3150 3150 3150 3151 3151 3151 3151 3151 3151 3151 3151 3151 3150 3150 3149 3150 3154 3157 3155 3153 3152 3150 3149 3148 3148 3147 3145 3144 3142 3141 3140 3139 3138 3137 3135 3133 3132 3130 3129 3128 3127 3125 3123 3122 3120 3119 3117 3115 3114 3113 3112 3109 3107 3104 3101 3098 3095 3092 3089 3085 3082 3081 3079 3076 3074 3073 3072 3071 3071 3069 3065 3061 3057 3055 3053 3049 3046 3043 3040 3038 3035 3033 3030 3028 3025
3151 3151 3151 3151 3151 3151 3151 3151 3151 3151 3151 3151 3151 3151 3151 3151 3150 3150 3153 3157 3156 3156 3155 3153 3152 3151 3150 3149 3147 3146 3145 3143 3142 3142 3140 3139 3137 3135 3133 3131 3130 3129 3128 3127 3126 3124 3122 3121 3119 3118 3116 3114 3113 3111 3110 3108 3104 3101 3098 3094 3089 3085 3081 3079 3078 3078 3077 3074 3072 3071 3069 3068 3068 3064 3060 3058 3057 3054 3048 3043 3040 3037 3034 3032 3029 3027 3025 3023
3152 3152 3152 3152 3152 3152 3151 3151 3152 3152 3152 3152 3152 3152 3152 3151 3151 3152 3155 3157 3156 3157 3156 3154 3153 3152 3150 3149 3147 3146 3145 3144 3142 3141 3139 3137 3135 3132 3131 3130 3129 3127 3126 3125 3125 3124 3123 3122 3121 3119 3117 3114 3111 3108 3107 3106 3104 3101 3098 3094 3090 3085 3082 3079 3077 3077 3076 3073 3071 3070 3068 3065 3063 3060 3057 3055 3052 3050 3046 3042 3039 3035 3031 3029 3027 3024 3022 3020
3153 3153 3153 3153 3153 3153 3152 3152 3153 3153 3154 3154 3153 3154 3153 3151 3153 3156 3156 3156 3157 3158 3156 3155 3154 3152 3151 3149 3148 3147 3146 3144 3143 3141 3140 3138 3136 3134 3133 3133 3131 3130 3128 3127 3125 3123 3121 3121 3120 3119 3117 3115 3112 3107 3104 3102 3101 3099 3097 3094 3092 3091 3090 3086 3082 3079 3075 3069 3067 3068 3066 3062 3059 3057 3053 3051 3049 3046 3044 3040 3038 3034 3031 3027 3024 3022 3019 3017
3155 3155 3155 3155 3154 3154 3154 3154 3154 3154 3155 3155 3155 3155 3153 3152 3155 3158 3157 3157 3158 3157 3156 3155 3154 3153 3152 3150 3149 3148 3146 3145 3144 3143 3142 3140 3138 3137 3136 3135 3133 3132 3130 3128 3126 3124 3122 3120 3119 3118 3117 3116 3114 3110 3107 3103 3101 3099 3098 3096 3095 3095 3095 3092 3086 3081 3077 3070 3064 3064 3063 3058 3055 3053 3049 3047 3046 3044 3041 3037 3035 3032 3028 3025 3022 3020 3016 3013
3157 3156 3156 3156 3156 3156 3156 3156 3156 3156 3157 3157 3158 3156 3153 3154 3157 3158 3158 3159 3158 3157 3157 3156 3155 3154 3153 3152 3151 3149 3148 3147 3146 3144 3143 3141 3139 3137 3136 3135 3134 3132 3130 3128 3126 3126 3126 3125 3123 3121 3119 3117 3114 3111 3108 3105 3102 3100 3099 3098 3096 3095 3095 3091 3086 3081 3079 3075 3066 3060 3058 3055 3052 3049 3045 3045 3042 3039 3036 3032 3029 3026 3022 3020 3017 3014 3011 3008
3159 3158 3158 3158 3158 3158 3158 3158 3159 3159 3158 3158 3159 3157 3155 3156 3159 3159 3159 3160 3159 3158 3158 3157 3156 3156 3155 3154 3152 3151 3150 3148 3147 3145 3143 3141 3140 3139 3137 3136 3134 3132 3130 3129 3127 3126 3125 3124 3123 3121 3119 3116 3114 3111 3109 3106 3103 3101 3099 3098 3096 3094 3091 3088 3083 3079 3079 3076 3066 3058 3055 3054 3052 3046 3041 3040 3037 3033 3030 3027 3024 3021 3018 3016 3012 3009 3007 3004
3160 3160 3160 3160 3160 3160 3160 3160 3160 3160 3159 3160 3159 3158 3158 3159 3160 3160 3161 3161 3160 3159 3159 3158 3158 3157 3156 3155 3154 3153 3151 3150 3148 3146 3144 3142 3141 3140 3138 3137 3135 3133 3131 3130 3128 3126 3124 3121 3120 3119 3117 3115 3113 3111 3109 3107 3104 3101 3099 3097 3094 3092 3089 3087 3082 3079 3079 3074 3063 3057 3054 3050 3047 3042 3036 3034 3031 3027 3025 3022 3019 3017 3014 3012 3009 3006 3004 3001
3163 3163 3163 3163 3162 3162 3162 3162 3161 3161 3161 3161 3160 3159 3160 3161 3161 3162 3162 3162 3161 3161 3160 3159 3159 3159 3158 3156 3155 3154 3152 3150 3148 3147 3145 3143 3142 3141 3139 3137 3136 3134 3132 3130 3128 3126 3123 3118 3116 3117 3116 3114 3112 3109 3107 3106 3104 3101 3099 3097 3094 3091 3088 3086 3083 3079 3078 3071 3060 3056 3053 3047 3042 3038 3033 3030 3027 3024 3021 3018 3016 3014 3011 3009 3005 3002 2999 2996
3166 3166 3165 3165 3164 3164 3163 3163 3163 3163 3162 3161 3159 3160 3162 3163 3163 3164 3163 3163 3163 3162 3161 3161 3161 3160 3159 3158 3156 3155 3153 3151 3149 3147 3146 3144 3143 3142 3140 3138 3136 3134 3132 3131 3128 3126 3124 3119 3115 3115 3115 3113 3110 3107 3104 3102 3101 3099 3097 3095 3094 3092 3088 3085 3082 3078 3076 3069 3060 3055 3051 3044 3040 3037 3034 3031 3028 3025 3021 3018 3015 3013 3009 3006 3002 2998 2994 2990
3169 3168 3166 3166 3166 3165 3164 3164 3166 3165 3162 3161 3161 3162 3164 3164 3165 3165 3165 3165 3164 3163 3163 3163 3162 3161 3160 3159 3157 3156 3154 3152 3150 3149 3147 3146 3144 3142 3140 3139 3137 3135 3133 3131 3129 3125 3123 3121 3115 3111 3111 3110 3108 3106 3104 3101 3100 3097 3095 3092 3090 3089 3087 3083 3078 3075 3073 3067 3061 3056 3048 3042 3039 3037 3034 3031 3028 3026 3022 3017 3014 3011 3008 3004 3000 2996 2991 2986
3171 3169 3167 3168 3168 3166 3165 3166 3168 3166 3163 3163 3164 3164 3165 3166 3167 3167 3167 3166 3166 3165 3165 3164 3163 3162 3161 3159 3158 3156 3155 3153 3152 3150 3148 3147 3144 3142 3140 3139 3136 3135 3132 3130 3129 3126 3123 3120 3115 3109 3107 3107 3106 3106 3104 3102 3100 3097 3093 3090 3088 3086 3084 3082 3076 3072 3071 3067 3062 3058 3046 3039 3039 3037 3033 3030 3027 3024 3021 3017 3013 3010 3006 3003 2998 2994 2988 2983
3173 3170 3169 3169 3168 3167 3168 3169 3169 3167 3165 3166 3166 3167 3168 3168 3168 3168 3168 3168 3167 3166 3166 3165 3164 3163 3161 3160 3159 3157 3155 3154 3152 3151 3149 3147 3145 3143 3141 3139 3136 3134 3132 3129 3127 3126 3122 3119 3115 3110 3108 3106 3106 3104 3102 3101 3099 3095 3092 3089 3087 3084 3082 3082 3077 3071 3069 3065 3061 3058 3048 3039 3038 3036 3032 3029 3026 3023 3021 3016 3011 3007 3003 2999 2994 2989 2984 2978
3174 3171 3171 3171 3169 3169 3170 3170 3170 3169 3168 3168 3169 3169 3170 3170 3170 3170 3169 3169 3168 3167 3167 3166 3164 3163 3162 3160 3159 3157 3156 3154 3153 3151 3150 3148 3146 3144 3141 3139 3136 3134 3131 3129 3126 3124 3122 3119 3115 3110 3105 3102 3101 3101 3100 3099 3096 3092 3089 3085 3083 3081 3080 3080 3077 3072 3068 3062 3059 3057 3048 3039 3038 3036 3032 3028 3025 3021 3017 3013 3008 3002 2997 2993 2987 2982 2977 2972
3175 3173 3173 3173 3171 3171 3172 3171 3171 3171 3170 3170 3171 3171 3171 3172 3171 3171 3171 3170 3169 3168 3167 3166 3165 3164 3162 3161 3159 3157 3156 3154 3153 3151 3149 3147 3145 3143 3141 3138 3136 3133 3130 3128 3125 3123 3121 3120 3117 3113 3107 3101 3097 3096 3094 3093 3092 3090 3086 3082 3080 3079 3076 3074 3072 3070 3066 3061 3059 3056 3046 3037 3037 3034 3028 3024 3020 3016 3013 3009 3004 2997 2990 2985 2980 2975 2971 2966
3176 3175 3174 3174 3174 3174 3173 3173 3173 3173 3172 3173 3173 3173 3173 3173 3173 3172 3172 3171 3170 3169 3168 3167 3165 3164 3163 3161 3160 3158 3156 3154 3153 3151 3149 3147 3145 3143 3140 3138 3135 3133 3130 3127 3125 3122 3120 3119 3118 3117 3116 3112 3106 3102 3098 3094 3092 3089 3086 3082 3079 3076 3073 3071 3069 3067 3064 3059 3057 3053 3043 3034 3032 3029 3023 3019 3015 3010 3007 3003 2999 2994 2987 2981 2975 2970 2965 2960
3177 3176 3176 3176 3177 3177 3175 3175 3176 3175 3175 3175 3175 3175 3175 3174 3174 3173 3173 3172 3171 3170 3169 3167 3166 3165 3163 3162 3160 3159 3157 3155 3153 3151 3149 3147 3144 3142 3140 3138 3136 3133 3130 3127 3125 3122 3119 3117 3117 3117 3117 3116 3111 3107 3103 3097 3092 3088 3085 3081 3078 3075 3073 3071 3069 3067 3065 3058 3052 3049 3042 3031 3026 3023 3018 3015 3012 3007 3002 2998 2993 2989 2984 2978 2972 2966 2960 2955
3179 3178 3178 3178 3178 3178 3177 3177 3178 3177 3177 3177 3176 3176 3176 3175 3175 3174 3173 3172 3171 3170 3169 3168 3167 3165 3163 3162 3160 3159 3157 3155 3153 3151 3148 3146 3145 3142 3140 3138 3136 3133 3130 3127 3124 3122 3118 3116 3114 3113 3112 3111 3108 3104 3100 3095 3091 3087 3083 3079 3076 3074 3071 3069 3068 3067 3064 3057 3048 3043 3038 3029 3023 3020 3016 3012 3009 3004 2999 2994 2990 2984 2979 2973 2967 2961 2955 2949
3181 3180 3180 3179 3179 3180 3180 3179 3179 3179 3179 3178 3177 3177 3177 3176 3176 3175 3174 3173 3172 3171 3170 3168 3167 3165 3163 3161 3159 3157 3155 3153 3151 3149 3147 3145 3143 3142 3140 3137 3135 3132 3130 3127 3124 3121 3118 3115 3112 3109 3106 3105 3104 3101 3097 3093 3089 3085 3081 3078 3074 3072 3069 3067 3066 3064 3062 3056 3045 3037 3033 3027 3021 3018 3014 3011 3007 3002 2996 2992 2987 2981 2975 2969 2963 2957 2950 2945
3183 3182 3182 3182 3181 3181 3181 3181 3180 3181 3180 3180 3179 3178 3178 3177 3176 3176 3175 3174 3173 3171 3170 3168 3167 3165 3163 3161 3159 3156 3153 3150 3148 3147 3145 3144 3142 3140 3137 3136 3134 3132 3130 3127 3124 3121 3118 3114 3111 3106 3100 3099 3099 3097 3095 3091 3086 3083 3079 3076 3073 3071 3068 3065 3063 3060 3057 3052 3043 3035 3029 3025 3021 3018 3013 3009 3005 2999 2994 2989 2983 2977 2970 2964 2958 2952 2946 2941
3184 3184 3184 3183 3183 3183 3183 3182 3182 3182 3181 3181 3180 3179 3179 3178 3177 3176 3175 3174 3173 3171 3170 3168 3166 3165 3163 3161 3159 3157 3154 3152 3149 3147 3144 3143 3141 3139 3136 3135 3133 3132 3130 3127 3124 3121 3117 3113 3110 3104 3096 3094 3096 3095 3091 3087 3083 3079 3076 3074 3071 3068 3064 3061 3058 3055 3052 3045 3039 3033 3026 3021 3019 3016 3010 3005 3001 2994 2989 2983 2977 2971 2964 2957 2952 2947 2941 2937
3186 3185 3185 3185 3185 3184 3184 3183 3183 3183 3182 3182 3181 3180 3179 3178 3178 3177 3175 3174 3173 3171 3170 3168 3166 3165 3163 3161 3159 3157 3155 3153 3151 3148 3146 3143 3141 3139 3137 3135 3132 3130 3128 3125 3123 3120 3117 3112 3108 3103 3094 3090 3091 3090 3087 3084 3079 3075 3074 3071 3068 3065 3060 3056 3054 3053 3048 3040 3032 3027 3022 3016 3014 3011 3006 3001 2996 2989 2983 2977 2972 2966 2959 2952 2947 2943 2938 2933
3187 3187 3186 3186 3186 3185 3185 3184 3184 3184 3183 3182 3181 3181 3180 3179 3178 3177 3175 3174 3173 3171 3170 3168 3166 3164 3162 3160 3158 3156 3155 3153 3150 3148 3146 3144 3141 3139 3137 3135 3132 3129 3126 3124 3121 3118 3115 3110 3106 3102 3095 3089 3088 3086 3083 3080 3076 3073 3072 3069 3065 3062 3058 3052 3050 3049 3046 3040 3032 3024 3018 3014 3009 3005 2999 2993 2988 2983 2977 2971 2967 2962 2955 2947 2942 2939 2934 2928